Location: Dannhausen
(51.8650°N, 10.1026°E)
Time: 01:57:52
(UTC+00:00)

Cosmos 2233 Rocket - Pass Details

Date: 17 August 2020
Orbit: 952 x 992 km, 82.9° (Epoch: 26 September)

Event Time Altitude Azimuth Distance (km) Brightness Sun altitude
Exits shadow 23:22:10 15° 250° (WSW) 2,427 5.9 -25.1°
Maximum altitude 23:26:09 26° 298° (WNW) 1,852 5.7 -25.1°
Drops below altitude 10° 23:31:21 10° 353° (N) 2,761 7.4 -25.1°
Sets 23:34:22 0° 6° (N) 3,710 8.4 -25.1°
